Tracking 19562 objects as of 25-Mar-2019
HD Live streaming from Space Station
objects crossing your sky now

FENGYUN 1C DEB

Track FENGYUN 1C DEB now!
10-day predictions


NORAD ID: 31731
Int'l Code: 1999-025CEE
Perigee: 823.2 km
Apogee: 845.6 km
Inclination: 99.3 °
Period: 101.4 minutes
Semi major axis: 7205 km
RCS: 0.0064 m2 (small)
Launch date: May 10, 1999
Source: People's Republic of China (PRC)
Launch site: Taiyaun Space Center, China (TSC)

Note: This is SATELLITE DEBRIS
aabbcc
Your satellite tracking list
Your tracking list is empty




NASA's NSSDC Master Catalog

Two Line Element Set (TLE):
1 31731U 99025CEE 19078.57004013 +.00000583 +00000-0 +29981-3 0  9993
2 31731 099.3083 308.6773 0015552 283.2627 076.6812 14.19432326607874
Source of the keplerian elements: AFSPC